Weather History for Liberia, Costa Rica

Change the Weather History Date:

Monday, April 14, 2014

  Actual Average Record
Temperature  
Mean Temperature 84 °F -  
Max Temperature 97 °F 92 °F 98 °F (1998)
Min Temperature 72 °F 76 °F 37 °F (2008)
Cooling Degree Days 20    
Growing Degree Days 34 (Base 50)    
Moisture  
Dew Point 66 °F    
Average Humidity 49    
Maximum Humidity 73    
Minimum Humidity 28    
Precipitation  
Precipitation 0.00 in - - ()
Sea Level Pressure  
Sea Level Pressure 29.78 in    
Wind  
Wind Speed 4 mph ()    
Max Wind Speed 13 mph    
Max Gust Speed -    
Visibility 8.0 miles    
Events      
Averages and records for this station are not official NWS values.
T = Trace of Precipitation, MM = Missing Value Source: Averaged Metar Reports

Daily Weather History Graph

Daily Weather History Graph

Search for Another Location

Airport:

Trip Planner

Search our weather history database for the weather conditions in past years. The results will help you decide how hot, cold, wet, or windy it might be!

Date:

Astronomy

Apr. 14, 2014 Rise Set
Actual Time 5:31 AM CST 5:53 PM CST
Civil Twilight 5:10 AM CST 6:14 PM CST
Nautical Twilight 4:45 AM CST 6:39 PM CST
Astronomical Twilight 4:20 AM CST 7:04 PM CST
Moon 5:33 PM CST (4/14) 4:56 AM CST (4/14)
Length of Visible Light 13h 03m
Length of Day
12h 21m
Full, 100% of the Moon is Illuminated
Apr 14
Full
Apr 15
Full
Apr 22
Last Quarter
Apr 29
New
May 6
First Quarter

Hourly Weather History & Observations

Time (CST) Temp. Heat Index Dew Point Humidity Pressure Visibility Wind Dir Wind Speed Gust Speed Precip Events Conditions
6:00 AM 72 °F - 64 °F 68% 29.83 in 12 mi Calm Calm - -   Overcast
6:00 AM 73.4 °F - 64.4 °F 73% 29.80 in - Calm Calm - N/A   Clear
7:00 AM 78.8 °F - 64.4 °F 61% 29.82 in - Calm Calm - N/A   Clear
8:00 AM 82.4 °F 83.9 °F 64.4 °F 54% 29.85 in - Calm Calm - N/A   Clear
9:00 AM 86 °F - 64 °F 39% 29.87 in 12 mi West 5.8 mph - -   Overcast
9:00 AM 86.0 °F 87.3 °F 64.4 °F 48% 29.84 in - West 5.8 mph - N/A   Clear
10:00 AM 91.4 °F 93.2 °F 64.4 °F 41% 29.84 in 6.2 mi ESE 6.9 mph - N/A   Overcast
11:00 AM 93.2 °F 94.9 °F 64.4 °F 38% 29.83 in 6.2 mi ENE 8.1 mph - N/A   Mostly Cloudy
12:00 PM 93 °F - 64 °F 28% 29.83 in 12 mi ESE 13.4 mph - -   Overcast
12:00 PM 93.2 °F 94.9 °F 64.4 °F 38% 29.80 in 6.2 mi ESE 6.9 mph - N/A   Mostly Cloudy
1:00 PM 95.0 °F 96.0 °F 62.6 °F 34% 29.76 in 6.2 mi ENE 4.6 mph - N/A   Mostly Cloudy
2:00 PM 91.4 °F 96.8 °F 69.8 °F 49% 29.73 in 6.2 mi WNW 11.5 mph - N/A   Mostly Cloudy
3:00 PM 92 °F - 68 °F 36% 29.71 in 12 mi West 12.7 mph - -   Overcast
3:00 PM 91.4 °F 95.4 °F 68.0 °F 46% 29.70 in 6.2 mi West 12.7 mph - N/A   Mostly Cloudy
4:00 PM 89.6 °F 93.4 °F 68.0 °F 49% 29.71 in 6.2 mi West 11.5 mph - N/A   Mostly Cloudy
5:00 PM 87.8 °F 91.4 °F 68.0 °F 52% 29.72 in 6.2 mi WNW 9.2 mph - N/A   Mostly Cloudy
6:00 PM 86 °F - 69 °F 48% 29.74 in 12 mi WNW 6.9 mph - -   Overcast
6:00 PM 86.0 °F 90.4 °F 69.8 °F 58% 29.73 in 6.2 mi WNW 6.9 mph - N/A   Mostly Cloudy
7:00 PM 84.2 °F 88.4 °F 69.8 °F 62% 29.75 in 6.2 mi WNW 4.6 mph - N/A   Mostly Cloudy
8:00 PM 82.4 °F 85.4 °F 68.0 °F 62% 29.78 in 6.2 mi WNW 4.6 mph - N/A   Scattered Clouds